FW4213 Weather Reports


Display with metric or nautical units.
time (UTC)temp
F
wind
direction
speed
MPH
gust
MPH
rain 1hr
in
rain 24hr
in
rain mn
in
humidity
%
barometer
mb
20260509040032 58 221 2.0 7.0 0.00 0.00 0.00 62 1022.9
20260509034531 58 218 2.0 9.0 0.00 0.00 0.00 60 1022.7
20260509031531 60 238 1.0 5.0 0.00 0.00 0.00 57 1022.2
20260509030035 62 242 4.0 9.0 0.00 0.00 0.00 53 1021.9
20260509023032 63 249 4.0 11.0 0.00 0.00 0.00 52 1021.8
20260509021648 64 249 4.0 13.0 0.00 0.00 0.00 50 1021.7
20260509020035 65 247 3.0 7.0 0.00 0.00 0.00 49 1021.6
20260509014534 67 221 1.0 6.0 0.00 0.00 0.00 45 1021.4
20260509011531 69 215 2.0 11.0 0.00 0.00 0.00 43 1021.4
20260509010034 69 235 2.0 8.0 0.00 0.00 0.00 42 1021.3
20260509004532 69 261 2.0 10.0 0.00 0.00 0.00 41 1021.1
20260509003034 70 298 3.0 12.0 0.00 0.00 0.00 41 1020.9
20260509001531 70 286 3.0 11.0 0.00 0.00 0.00 40 1020.8
20260509000110 68 278 4.0 14.0 0.00 0.00 0.00 39 1020.7
20260508234534 69 307 3.0 14.0 0.00 0.00 0.00 36 1020.7
20260508233031 69 269 5.0 19.0 0.00 0.00 0.00 34 1020.5
20260508231534 69 267 5.0 21.0 0.00 0.00 0.00 35 1020.5
20260508230030 69 265 5.0 18.0 0.00 0.00 0.00 37 1020.6
20260508224543 69 269 5.0 13.0 0.00 0.00 0.00 38 1020.5
20260508223030 70 272 5.0 12.0 0.00 0.00 0.00 39 1020.6
20260508221531 69 281 3.0 19.0 0.00 0.00 0.00 40 1020.7
20260508220034 69 273 3.0 13.0 0.00 0.00 0.00 40 1020.8
20260508214535 68 284 3.0 12.0 0.00 0.00 0.00 41 1021.0
20260508213032 68 263 3.0 8.0 0.00 0.00 0.00 41 1021.1
20260508211611 69 247 4.0 9.0 0.00 0.00 0.00 41 1021.1
20260508210142 68 254 3.0 11.0 0.00 0.00 0.00 42 1021.1
20260508204535 68 259 4.0 12.0 0.00 0.00 0.00 43 1021.0
20260508203113 67 245 4.0 18.0 0.00 0.00 0.00 44 1021.0
20260508201530 67 240 5.0 14.0 0.00 0.00 0.00 46 1021.0
20260508194534 65 250 5.0 14.0 0.00 0.00 0.00 47 1021.0
20260508193031 64 273 5.0 14.0 0.00 0.00 0.00 49 1021.1
20260508183030 57 243 3.0 9.0 0.00 0.00 0.00 58 1021.3
20260508181537 56 239 5.0 12.0 0.00 0.00 0.00 59 1021.1
20260508180034 56 238 4.0 11.0 0.00 0.00 0.00 58 1021.0
20260508174535 57 241 5.0 12.0 0.00 0.00 0.00 58 1020.9
20260508173037 58 243 3.0 8.0 0.00 0.00 0.00 57 1020.6
20260508171530 59 239 3.0 9.0 0.00 0.00 0.00 58 1020.4
20260508170035 58 254 1.0 6.0 0.00 0.00 0.00 58 1020.3
20260508164533 58 272 2.0 8.0 0.00 0.00 0.00 58 1020.3
20260508163032 59 295 4.0 12.0 0.00 0.00 0.00 58 1020.4
20260508161530 60 305 3.0 10.0 0.00 0.00 0.00 58 1020.5
20260508160030 59 294 2.0 9.0 0.00 0.00 0.00 61 1020.5
20260508154649 59 275 3.0 9.0 0.00 0.00 0.00 62 1020.5
20260508153031 58 251 2.0 10.0 0.00 0.00 0.00 63 1020.2
20260508151536 57 235 5.0 14.0 0.00 0.00 0.00 63 1020.1
20260508150035 56 238 4.0 13.0 0.00 0.00 0.00 63 1020.0
20260508144530 55 248 2.0 6.0 0.00 0.00 0.00 61 1019.8
20260508143033 55 232 5.0 11.0 0.00 0.00 0.00 60 1019.5
20260508141532 55 236 4.0 8.0 0.00 0.00 0.00 60 1019.3
20260508134609 54 244 3.0 9.0 0.00 0.00 0.00 67 1019.0
20260508133030 54 257 2.0 8.0 0.00 0.00 0.00 69 1018.7
20260508131535 53 249 4.0 10.0 0.00 0.00 0.00 70 1018.5
20260508130032 52 255 2.0 7.0 0.00 0.00 0.00 73 1018.5
20260508124532 50 226 1.0 6.0 0.00 0.00 0.00 73 1018.5
20260508123109 50 239 0.0 5.0 0.00 0.00 0.00 73 1018.5
20260508120034 49 218 0.0 3.0 0.00 0.00 0.00 74 1018.5
20260508114544 49 197 0.0 3.0 0.00 0.00 0.00 73 1018.5
20260508111533 48 152 0.0 2.0 0.00 0.00 0.00 75 1018.1
20260508110032 47 197 0.0 3.0 0.00 0.00 0.00 76 1018.0
20260508104533 47 127 0.0 4.0 0.00 0.00 0.00 77 1018.0
20260508103035 46 234 0.0 3.0 0.00 0.00 0.00 76 1018.0
20260508101653 47 100 2.0 5.0 0.00 0.00 0.00 75 1018.1
20260508100035 47 83 2.0 4.0 0.00 0.00 0.00 72 1018.1
20260508093032 48 64 2.0 3.0 0.00 0.00 0.00 70 1018.0
20260508091534 49 58 2.0 4.0 0.00 0.00 0.00 69 1018.1
20260508090152 48 78 1.0 6.0 0.00 0.00 0.00 69 1018.0
20260508084533 49 102 1.0 3.0 0.00 0.00 0.00 68 1018.0
20260508083031 49 120 1.0 3.0 0.00 0.00 0.00 66 1017.9
20260508074537 52 202 0.0 1.0 0.00 0.00 0.00 59 1017.8
20260508071609 53 202 0.0 1.0 0.00 0.00 0.00 59 1017.7
20260508070109 53 261 0.0 3.0 0.00 0.00 0.00 58 1017.7
20260508064535 53 187 0.0 2.0 0.00 0.00 0.00 57 1017.7
20260508063035 54 202 0.0 2.0 0.00 0.00 0.00 56 1017.7
20260508061537 55 237 0.0 2.0 0.00 0.00 0.00 53 1017.7
20260508054532 56 247 0.0 2.0 0.00 0.00 0.00 52 1017.7
20260508053035 56 231 1.0 3.0 0.00 0.00 0.00 51 1017.7
20260508051534 57 242 1.0 5.0 0.00 0.00 0.00 50 1017.6
20260508050030 57 223 2.0 6.0 0.00 0.00 0.00 49 1017.5
20260508044533 57 211 0.0 4.0 0.00 0.00 0.00 49 1017.5
20260508043109 57 201 0.0 4.0 0.00 0.00 0.00 47 1017.5
20260508041530 58 215 1.0 4.0 0.00 0.00 0.00 43 1017.4